******** Week 149 almanac for PRN-1 ******** ID: 1 Health: 0 Eccentricity: 0.01139211655 Time of Applicability(s): 405504 Orbital Inclination(rad): 0.9867355387 Rate of Right Ascen(r/s): -7.886042771e-09 SQRT(A) (m 1/2): 5153.623047 Right Ascen at Week(rad): -1.9126029 Argument of Perigee(rad): 0.8814989143 Mean Anom(rad): -2.769097478 Af0(s): 0.0003391534424 Af1(s/s): -1.091394e-11 week: 149 ******** Week 149 almanac for PRN-2 ******** ID: 2 Health: 0 Eccentricity: 0.02066612244 Time of Applicability(s): 405504 Orbital Inclination(rad): 0.9650920285 Rate of Right Ascen(r/s): -7.954617056e-09 SQRT(A) (m 1/2): 5153.64502 Right Ascen at Week(rad): -2.001935934 Argument of Perigee(rad): -1.441149484 Mean Anom(rad): -2.625730196 Af0(s): -0.0005147595581 Af1(s/s): 0 week: 149 ******** Week 149 almanac for PRN-3 ******** ID: 3 Health: 0 Eccentricity: 0.003894329071 Time of Applicability(s): 405504 Orbital Inclination(rad): 0.9724862952 Rate of Right Ascen(r/s): -8.171768958e-09 SQRT(A) (m 1/2): 5153.625977 Right Ascen at Week(rad): -0.8770696196 Argument of Perigee(rad): 0.9565729677 Mean Anom(rad): 2.361143227 Af0(s): -9.948500976e-05 Af1(s/s): -1.818989e-11 week: 149 ******** Week 149 almanac for PRN-4 ******** ID: 4 Health: 0 Eccentricity: 0.001700878143 Time of Applicability(s): 405504 Orbital Inclination(rad): 0.9615986269 Rate of Right Ascen(r/s): -7.668890868e-09 SQRT(A) (m 1/2): 5153.612305 Right Ascen at Week(rad): 0.2039887353 Argument of Perigee(rad): -3.057633048 Mean Anom(rad): -0.9909178838 Af0(s): -0.0001492275146 Af1(s/s): 3.637979e-12 week: 149 ******** Week 149 almanac for PRN-5 ******** ID: 5 Health: 0 Eccentricity: 0.005874156952 Time of Applicability(s): 405504 Orbital Inclination(rad): 0.9594654349 Rate of Right Ascen(r/s): -8.308917528e-09 SQRT(A) (m 1/2): 5153.611816 Right Ascen at Week(rad): -0.9175073905 Argument of Perigee(rad): 1.008323847 Mean Anom(rad): -0.1150695315 Af0(s): -5.652557373e-05 Af1(s/s): 0 week: 149 ******** Week 149 almanac for PRN-6 ******** ID: 6 Health: 0 Eccentricity: 0.002697944641 Time of Applicability(s): 405504 Orbital Inclination(rad): 0.986112359 Rate of Right Ascen(r/s): -7.840326581e-09 SQRT(A) (m 1/2): 5153.625 Right Ascen at Week(rad): -1.920875386 Argument of Perigee(rad): -0.9555378303 Mean Anom(rad): -2.443844491 Af0(s): 0.0001612863037 Af1(s/s): 1.091394e-11 week: 149 ******** Week 149 almanac for PRN-7 ******** ID: 7 Health: 0 Eccentricity: 0.01554679871 Time of Applicability(s): 405504 Orbital Inclination(rad): 0.950734927 Rate of Right Ascen(r/s): -8.068907531e-09 SQRT(A) (m 1/2): 5153.633789 Right Ascen at Week(rad): 1.22270665 Argument of Perigee(rad): -2.290457272 Mean Anom(rad): 2.843411657 Af0(s): 0.0002456978271 Af1(s/s): 3.637979e-12 week: 149 ******** Week 149 almanac for PRN-8 ******** ID: 8 Health: 0 Eccentricity: 0.007308959961 Time of Applicability(s): 405504 Orbital Inclination(rad): 0.9650380995 Rate of Right Ascen(r/s): -7.657461821e-09 SQRT(A) (m 1/2): 5153.678223 Right Ascen at Week(rad): -2.992151243 Argument of Perigee(rad): 0.1075041151 Mean Anom(rad): -0.5093606428 Af0(s): -4.446678467e-05 Af1(s/s): 0 week: 149 ******** Week 149 almanac for PRN-9 ******** ID: 9 Health: 0 Eccentricity: 0.002245903015 Time of Applicability(s): 405504 Orbital Inclination(rad): 0.9545998396 Rate of Right Ascen(r/s): -7.760323248e-09 SQRT(A) (m 1/2): 5153.578125 Right Ascen at Week(rad): 0.1510405571 Argument of Perigee(rad): 1.870264506 Mean Anom(rad): -0.1401034538 Af0(s): -0.0002796131714 Af1(s/s): 0 week: 149 ******** Week 149 almanac for PRN-10 ******** ID: 10 Health: 0 Eccentricity: 0.007507324219 Time of Applicability(s): 405504 Orbital Inclination(rad): 0.9723185161 Rate of Right Ascen(r/s): -8.160339911e-09 SQRT(A) (m 1/2): 5153.626953 Right Ascen at Week(rad): -0.8798570755 Argument of Perigee(rad): -2.512175545 Mean Anom(rad): 1.479010647 Af0(s): -0.0002554955933 Af1(s/s): -1.091394e-11 week: 149 ******** Week 149 almanac for PRN-11 ******** ID: 11 Health: 255 Eccentricity: 0.0002679824829 Time of Applicability(s): 405504 Orbital Inclination(rad): 0.9618203351 Rate of Right Ascen(r/s): -8.126052768e-09 SQRT(A) (m 1/2): 5153.720215 Right Ascen at Week(rad): -1.868874336 Argument of Perigee(rad): 2.871546123 Mean Anom(rad): -0.6534173928 Af0(s): -6.783068848e-05 Af1(s/s): 1.091394e-11 week: 149 ******** Week 149 almanac for PRN-12 ******** ID: 12 Health: 0 Eccentricity: 0.008690834045 Time of Applicability(s): 405504 Orbital Inclination(rad): 0.9701134187 Rate of Right Ascen(r/s): -7.988904198e-09 SQRT(A) (m 1/2): 5153.541016 Right Ascen at Week(rad): 2.335840783 Argument of Perigee(rad): 1.247364942 Mean Anom(rad): 2.192497469 Af0(s): -0.0001364150513 Af1(s/s): -7.275958e-12 week: 149 ******** Week 149 almanac for PRN-13 ******** ID: 13 Health: 0 Eccentricity: 0.005807876587 Time of Applicability(s): 405504 Orbital Inclination(rad): 0.9690288464 Rate of Right Ascen(r/s): -7.600316584e-09 SQRT(A) (m 1/2): 5153.63623 Right Ascen at Week(rad): 0.3038465403 Argument of Perigee(rad): 0.9566212791 Mean Anom(rad): -1.073107945 Af0(s): 0.0002080141113 Af1(s/s): 7.275958e-12 week: 149 ******** Week 149 almanac for PRN-14 ******** ID: 14 Health: 255 Eccentricity: 0.001444339752 Time of Applicability(s): 405504 Orbital Inclination(rad): 0.9535092751 Rate of Right Ascen(r/s): -8.171768958e-09 SQRT(A) (m 1/2): 5153.585449 Right Ascen at Week(rad): 2.304509525 Argument of Perigee(rad): 3.022224532 Mean Anom(rad): 2.253437627 Af0(s): -6.707701416e-05 Af1(s/s): -3.637979e-12 week: 149 ******** Week 149 almanac for PRN-15 ******** ID: 15 Health: 0 Eccentricity: 0.01393938065 Time of Applicability(s): 405504 Orbital Inclination(rad): 0.9304456343 Rate of Right Ascen(r/s): -8.034620388e-09 SQRT(A) (m 1/2): 5153.691895 Right Ascen at Week(rad): 0.04498765679 Argument of Perigee(rad): 1.075258365 Mean Anom(rad): -1.502165667 Af0(s): -6.556966553e-05 Af1(s/s): 3.637979e-12 week: 149 ******** Week 149 almanac for PRN-16 ******** ID: 16 Health: 0 Eccentricity: 0.01276636124 Time of Applicability(s): 405504 Orbital Inclination(rad): 0.970077466 Rate of Right Ascen(r/s): -7.954617056e-09 SQRT(A) (m 1/2): 5153.546875 Right Ascen at Week(rad): 2.354458277 Argument of Perigee(rad): 0.708816345 Mean Anom(rad): 0.3379929677 Af0(s): -0.000371561438 Af1(s/s): -3.637979e-12 week: 149 ******** Week 149 almanac for PRN-17 ******** ID: 17 Health: 0 Eccentricity: 0.01359272003 Time of Applicability(s): 405504 Orbital Inclination(rad): 0.9801681834 Rate of Right Ascen(r/s): -7.474597061e-09 SQRT(A) (m 1/2): 5153.72168 Right Ascen at Week(rad): -2.910275393 Argument of Perigee(rad): -1.497831498 Mean Anom(rad): -0.598648736 Af0(s): 0.0004552192871 Af1(s/s): 3.637979e-12 week: 149 ******** Week 149 almanac for PRN-18 ******** ID: 18 Health: 0 Eccentricity: 0.00209903717 Time of Applicability(s): 405504 Orbital Inclination(rad): 0.9705208824 Rate of Right Ascen(r/s): -8.034620388e-09 SQRT(A) (m 1/2): 5153.570312 Right Ascen at Week(rad): -1.904816525 Argument of Perigee(rad): 3.106572877 Mean Anom(rad): -2.567320581 Af0(s): 0.0001884185791 Af1(s/s): -7.275958e-12 week: 149 ******** Week 149 almanac for PRN-19 ******** ID: 19 Health: 0 Eccentricity: 0.008979797363 Time of Applicability(s): 405504 Orbital Inclination(rad): 0.978921824 Rate of Right Ascen(r/s): -7.497455156e-09 SQRT(A) (m 1/2): 5153.646484 Right Ascen at Week(rad): -2.86542106 Argument of Perigee(rad): 2.00865459 Mean Anom(rad): 1.814444983 Af0(s): 9.496296387e-05 Af1(s/s): 3.637979e-12 week: 149 ******** Week 149 almanac for PRN-20 ******** ID: 20 Health: 0 Eccentricity: 0.00514793396 Time of Applicability(s): 405504 Orbital Inclination(rad): 0.9416149319 Rate of Right Ascen(r/s): -8.514640383e-09 SQRT(A) (m 1/2): 5153.688477 Right Ascen at Week(rad): -1.031609196 Argument of Perigee(rad): 3.134696482 Mean Anom(rad): -1.756460808 Af0(s): 0.0004084914795 Af1(s/s): 0 week: 149 ******** Week 149 almanac for PRN-21 ******** ID: 21 Health: 0 Eccentricity: 0.02460336685 Time of Applicability(s): 405504 Orbital Inclination(rad): 0.9593455926 Rate of Right Ascen(r/s): -7.977475151e-09 SQRT(A) (m 1/2): 5153.53125 Right Ascen at Week(rad): -2.003583765 Argument of Perigee(rad): -1.003127187 Mean Anom(rad): -0.4098706036 Af0(s): 0.0001251099365 Af1(s/s): 0 week: 149 ******** Week 149 almanac for PRN-22 ******** ID: 22 Health: 0 Eccentricity: 0.01291179657 Time of Applicability(s): 405504 Orbital Inclination(rad): 0.9617484297 Rate of Right Ascen(r/s): -7.668890868e-09 SQRT(A) (m 1/2): 5153.617676 Right Ascen at Week(rad): 0.2522829146 Argument of Perigee(rad): -1.872079367 Mean Anom(rad): -0.7202470485 Af0(s): 0.0001695767212 Af1(s/s): 7.275958e-12 week: 149 ******** Week 149 almanac for PRN-23 ******** ID: 23 Health: 0 Eccentricity: 0.001976013184 Time of Applicability(s): 405504 Orbital Inclination(rad): 0.967357047 Rate of Right Ascen(r/s): -8.228914196e-09 SQRT(A) (m 1/2): 5153.647949 Right Ascen at Week(rad): -0.9047295852 Argument of Perigee(rad): 2.96586834 Mean Anom(rad): 2.795742904 Af0(s): 7.536743164e-07 Af1(s/s): -3.637979e-12 week: 149 ******** Week 149 almanac for PRN-24 ******** ID: 24 Health: 0 Eccentricity: 0.01234579086 Time of Applicability(s): 405504 Orbital Inclination(rad): 0.9342925705 Rate of Right Ascen(r/s): -8.194627053e-09 SQRT(A) (m 1/2): 5153.635742 Right Ascen at Week(rad): 1.139893409 Argument of Perigee(rad): 0.8076891966 Mean Anom(rad): -2.473141801 Af0(s): 0.0002163045288 Af1(s/s): -3.637979e-12 week: 149 ******** Week 149 almanac for PRN-25 ******** ID: 25 Health: 0 Eccentricity: 0.01051139832 Time of Applicability(s): 405504 Orbital Inclination(rad): 0.957500022 Rate of Right Ascen(r/s): -8.160339911e-09 SQRT(A) (m 1/2): 5153.646973 Right Ascen at Week(rad): 2.259078827 Argument of Perigee(rad): 0.9815267455 Mean Anom(rad): 1.936319307 Af0(s): 0.0002268559692 Af1(s/s): 3.637979e-12 week: 149 ******** Week 149 almanac for PRN-26 ******** ID: 26 Health: 0 Eccentricity: 0.006885051727 Time of Applicability(s): 405504 Orbital Inclination(rad): 0.93831927 Rate of Right Ascen(r/s): -8.354633718e-09 SQRT(A) (m 1/2): 5153.633789 Right Ascen at Week(rad): 2.212029883 Argument of Perigee(rad): 0.3703320241 Mean Anom(rad): 1.28365692 Af0(s): 0.0001454591431 Af1(s/s): 3.637979e-12 week: 149 ******** Week 149 almanac for PRN-27 ******** ID: 27 Health: 0 Eccentricity: 0.0102519989 Time of Applicability(s): 405504 Orbital Inclination(rad): 0.973750631 Rate of Right Ascen(r/s): -7.577458489e-09 SQRT(A) (m 1/2): 5153.609863 Right Ascen at Week(rad): -2.972719946 Argument of Perigee(rad): 0.6396512635 Mean Anom(rad): -0.5490602603 Af0(s): 9.722398682e-05 Af1(s/s): 1.455192e-11 week: 149 ******** Week 149 almanac for PRN-29 ******** ID: 29 Health: 0 Eccentricity: 0.001844406128 Time of Applicability(s): 405504 Orbital Inclination(rad): 0.9821815332 Rate of Right Ascen(r/s): -7.463168014e-09 SQRT(A) (m 1/2): 5153.712402 Right Ascen at Week(rad): -2.897265019 Argument of Perigee(rad): 2.251453489 Mean Anom(rad): -0.4194048036 Af0(s): -0.0003806055298 Af1(s/s): -3.637979e-12 week: 149 ******** Week 149 almanac for PRN-30 ******** ID: 30 Health: 0 Eccentricity: 0.005513191223 Time of Applicability(s): 405504 Orbital Inclination(rad): 0.9358984566 Rate of Right Ascen(r/s): -8.217485148e-09 SQRT(A) (m 1/2): 5153.516113 Right Ascen at Week(rad): 1.23580803 Argument of Perigee(rad): -2.743370343 Mean Anom(rad): 2.882037188 Af0(s): -0.0004062304565 Af1(s/s): -3.637979e-12 week: 149 ******** Week 149 almanac for PRN-31 ******** ID: 31 Health: 0 Eccentricity: 0.01045799255 Time of Applicability(s): 405504 Orbital Inclination(rad): 0.9549593663 Rate of Right Ascen(r/s): -7.988904198e-09 SQRT(A) (m 1/2): 5153.632812 Right Ascen at Week(rad): 1.240814065 Argument of Perigee(rad): 0.376079209 Mean Anom(rad): 2.390990314 Af0(s): -0.0001303856567 Af1(s/s): -3.637979e-12 week: 149 ******** Week 149 almanac for PRN-32 ******** ID: 32 Health: 0 Eccentricity: 0.005582809448 Time of Applicability(s): 405504 Orbital Inclination(rad): 0.95845876 Rate of Right Ascen(r/s): -7.714607058e-09 SQRT(A) (m 1/2): 5153.734863 Right Ascen at Week(rad): 0.1622488035 Argument of Perigee(rad): -2.351886911 Mean Anom(rad): 0.09305188882 Af0(s): -5.50182251e-05 Af1(s/s): -7.275958e-12 week: 149